Weather History for Orangeburg, SC

Change the Weather History Date:

Sunday, July 21, 2013

  Actual Average Record
Temperature  
Mean Temperature 81 °F 82 °F  
Max Temperature 87 °F 93 °F 103 °F (1986)
Min Temperature 74 °F 72 °F 64 °F (1957)
Degree Days  
Heating Degree Days 0 0  
Month to date heating degree days 0 0  
Since 1 June heating degree days 0 1  
Since 1 July heating degree days 0 0  
Cooling Degree Days 16 17  
Month to date cooling degree days 320 350  
Year to date cooling degree days 1006 1051  
Since 1 June cooling degree days 744 748  
Growing Degree Days 30 (Base 50)    
Moisture  
Dew Point 72 °F    
Average Humidity 82    
Maximum Humidity 93    
Minimum Humidity 61    
Precipitation  
Precipitation 0.04 in 0.16 in 1.77 in (1983)
Month to date precipitation 11.31 3.75  
Year to date precipitation 35.58 26.49  
Sea Level Pressure  
Sea Level Pressure 30.01 in    
Wind  
Wind Speed 7 mph (SW)    
Max Wind Speed 17 mph    
Max Gust Speed 21 mph    
Visibility 10 miles    
Events Rain    
T = Trace of Precipitation, MM = Missing Value Source: NWS Daily Summary

Daily Weather History Graph

Daily Weather History Graph

Search for Another Location

Airport:

Trip Planner

Search our weather history database for the weather conditions in past years. The results will help you decide how hot, cold, wet, or windy it might be!

Date:

Astronomy

Jul. 21, 2013 Rise Set
Actual Time 6:28 AM EDT 8:30 PM EDT
Civil Twilight 6:00 AM EDT 8:58 PM EDT
Nautical Twilight 5:26 AM EDT 9:32 PM EDT
Astronomical Twilight 4:50 AM EDT 10:08 PM EDT
Moon 7:29 PM EDT (7/21) 5:11 AM EDT (7/21)
Length of Visible Light 14h 57m
Length of Day
14h 02m
Waxing Gibbous, 98% of the Moon is Illuminated
Jul 21
Waxing Gibbous
Jul 22
Full
Jul 29
Last Quarter
Aug 6
New
Aug 14
First Quarter

Hourly Weather History & Observations

Time (EDT) Temp. Heat Index Dew Point Humidity Pressure Visibility Wind Dir Wind Speed Gust Speed Precip Events Conditions
12:23 AM 73.4 °F - 69.8 °F 88% 30.04 in 10.0 mi SSW 5.8 mph - 0.00 in Rain Light Rain
12:53 AM 73.9 °F - 70.0 °F 87% 30.04 in 10.0 mi SSW 5.8 mph - 0.00 in   Overcast
1:53 AM 75.0 °F - 71.1 °F 87% 30.03 in 10.0 mi SSW 6.9 mph - N/A   Overcast
2:53 AM 73.9 °F - 71.1 °F 91% 30.01 in 3.0 mi SW 8.1 mph - 0.03 in Rain Rain
3:00 AM 73.4 °F - 71.6 °F 94% 30.02 in 4.0 mi SW 8.1 mph - 0.01 in Rain Light Rain
3:33 AM 73.4 °F - 71.6 °F 94% 30.01 in 10.0 mi SW 8.1 mph - 0.01 in   Overcast
3:45 AM 73.4 °F - 71.6 °F 94% 30.01 in 10.0 mi SW 6.9 mph - 0.01 in   Overcast
3:53 AM 73.9 °F - 71.1 °F 91% 30.01 in 10.0 mi SW 8.1 mph - 0.01 in   Overcast
4:04 AM 73.4 °F - 71.6 °F 94% 30.01 in 10.0 mi SW 5.8 mph - N/A   Overcast
4:53 AM 73.9 °F - 71.1 °F 91% 30.00 in 10.0 mi SW 5.8 mph - N/A   Overcast
5:29 AM 73.4 °F - 71.6 °F 94% 30.00 in 10.0 mi SW 5.8 mph - N/A   Overcast
5:53 AM 75.0 °F - 71.1 °F 87% 29.99 in 10.0 mi WSW 5.8 mph - N/A   Overcast
6:53 AM 75.0 °F - 71.1 °F 87% 30.01 in 10.0 mi SW 6.9 mph - N/A   Overcast
7:53 AM 75.0 °F - 71.1 °F 87% 30.02 in 10.0 mi WSW 5.8 mph - N/A   Overcast
8:53 AM 75.9 °F - 71.1 °F 85% 30.04 in 10.0 mi WSW 6.9 mph - N/A   Overcast
9:53 AM 77.0 °F - 71.1 °F 82% 30.04 in 10.0 mi SW 6.9 mph - N/A   Overcast
10:53 AM 78.1 °F - 72.0 °F 81% 30.05 in 10.0 mi Variable 6.9 mph - N/A   Overcast
11:53 AM 79.0 °F - 72.0 °F 79% 30.05 in 10.0 mi SW 9.2 mph - N/A   Overcast
12:53 PM 81.0 °F 85.2 °F 72.0 °F 74% 30.04 in 10.0 mi SW 9.2 mph - 0.00 in   Mostly Cloudy
1:12 PM 80.6 °F 84.6 °F 71.6 °F 74% 30.03 in 10.0 mi SSW 8.1 mph - N/A   Mostly Cloudy
1:53 PM 82.9 °F 88.0 °F 72.0 °F 69% 30.01 in 10.0 mi SW 6.9 mph - N/A   Scattered Clouds
2:53 PM 84.9 °F 90.7 °F 72.0 °F 65% 29.99 in 10.0 mi WSW 5.8 mph - N/A   Mostly Cloudy
3:53 PM 86.0 °F 92.2 °F 72.0 °F 63% 29.96 in 10.0 mi South 6.9 mph - N/A   Scattered Clouds
4:53 PM 86.0 °F 92.2 °F 72.0 °F 63% 29.95 in 10.0 mi SSW 8.1 mph - N/A   Scattered Clouds
5:53 PM 86.0 °F 92.2 °F 72.0 °F 63% 29.95 in 10.0 mi SSW 6.9 mph - N/A   Clear
6:53 PM 82.9 °F 88.0 °F 72.0 °F 69% 29.95 in 10.0 mi SSW 17.3 mph 20.7 mph N/A   Clear
7:53 PM 81.0 °F 85.2 °F 72.0 °F 74% 29.97 in 10.0 mi SSW 6.9 mph - N/A   Overcast
8:51 PM 78.8 °F - 71.6 °F 78% 29.99 in 10.0 mi SW 6.9 mph - N/A   Partly Cloudy
8:53 PM 78.1 °F - 72.0 °F 81% 29.99 in 10.0 mi SW 8.1 mph - N/A   Partly Cloudy
9:53 PM 77.0 °F - 72.0 °F 84% 30.00 in 10.0 mi SSW 3.5 mph - N/A   Clear
10:53 PM 77.0 °F - 72.0 °F 84% 30.01 in 10.0 mi Calm Calm - N/A   Partly Cloudy
11:53 PM 75.0 °F - 72.0 °F 90% 30.01 in 10.0 mi SSW 4.6 mph - N/A   Clear